Tracking 19817 objects as of 18-Aug-2019
HD Live streaming from Space Station
objects crossing your sky now

COSMOS 2251 DEB

Track COSMOS 2251 DEB now!
10-day predictions


NORAD ID: 35434
Int'l Code: 1993-036AKC
Perigee: 767.2 km
Apogee: 905.1 km
Inclination: 74.0 °
Period: 101.5 minutes
Semi major axis: 7207 km
RCS: 0.0109 m2 (small)
Launch date: June 16, 1993
Source: Commonwealth of Independent States (former USSR) (CIS)
Launch site: PLESETSK MISSILE AND SPACE COMPLEX (PKMTR)

Note: This is SATELLITE DEBRIS
aabbcc
Your satellite tracking list
Your tracking list is empty




NASA's NSSDC Master Catalog

Two Line Element Set (TLE):
1 35434U 93036AKC 19228.82637506 +.00000200 +00000-0 +10364-3 0  9998
2 35434 074.0433 030.2299 0095650 294.3429 064.7751 14.18921641533081
Source of the keplerian elements: AFSPC